Regional Weather Roundup
Issued by NWS

Home | Current Version | Previous Version | Text Only | Print | Product List | Glossary Off
Versions: 1 2 3 4 5 6 7 8 9 10 11 12 13 14 15 16 17 18 19 20 21 22 23 24 25 26 27 28 29 30 31 32 33 34 35 36 37 38 39 40 41 42 43 44 45 46 47 48 49 50

000
ASUS43 KFSD 311602
RWRSD

WEATHER ROUNDUP FOR SOUTH DAKOTA
NATIONAL WEATHER SERVICE SIOUX FALLS SD
1100 AM CDT MON AUG 31 2015

NOTE: "FAIR" INDICATES FEW OR NO CLOUDS BELOW 12,000 FEET WITH NO
SIGNIFICANT WEATHER AND/OR OBSTRUCTIONS TO VISIBILITY.


SDZ001>005-009-010-012>017-311700-
NORTHWEST AND NORTH CENTRAL SOUTH DAKOTA

CITY           SKY/WX    TMP DP  RH WIND       PRES   REMARKS
FAITH            N/A     67  53  61 N14       29.94R
MOBRIDGE       PTSUNNY   75  59  57 NW16G25   29.84R
$$

SDZ012>016-024>037-041>051-057-063-072>074-311700-
SOUTHWEST AND SOUTH CENTRAL SOUTH DAKOTA

CITY           SKY/WX    TMP DP  RH WIND       PRES   REMARKS
RAPID CTY ARPT CLOUDY    68  55  63 NW25G32   29.99R
PIERRE         CLOUDY    73  61  65 N15G24    29.83R HAZE
CUSTER         CLOUDY    70  45  40 N3        30.08R
ELLSWORTH AFB  CLOUDY    67  54  62 NW22G31   29.99R
PHILIP         CLOUDY    70  57  63 NW14      29.92R
PINE RIDGE     LGT RAIN  71  53  52 N10       30.00R
WINNER         FAIR      87  53  31 W17       29.84R
$$

SDZ004>011-016>023-039-040-311700-
NORTHEAST SOUTH DAKOTA

CITY           SKY/WX    TMP DP  RH WIND       PRES   REMARKS
ABERDEEN       MOSUNNY   78  65  63 SW14      29.79R
WATERTOWN      SUNNY     75  65  70 S18G30    29.82R
BROOKINGS      SUNNY     73  64  73 S16G23    29.88F
$$

SDZ017-020-022-023-036>040-048>070-311700-
SOUTHEAST SOUTH DAKOTA

CITY           SKY/WX    TMP DP  RH WIND       PRES   REMARKS
SIOUX FALLS    MOSUNNY   75  68  78 S16G24    29.90R
HURON          SUNNY     78  65  63 S13G22    29.80R
CHAMBERLAIN    MOSUNNY   81  58  45 SW8G16    29.82R
MITCHELL       SUNNY     76  65  68 S15G21    29.83S
YANKTON        SUNNY     75  66  73 S14       29.89R
$$

ABBREVIATIONS USED IN REMARKS
   TC - TEMPERATURE IN CELSIUS
  WCI - WIND CHILL INDEX
   HX - HEAT INDEX
  VSB - VISIBILITY




USA.gov is the U.S. government's official web portal to all federal, state and local government web resources and services.